"Sample Date","Sample Time","Sample Value","Units","Flow Rate","Sample Interval","Number Channels","Micron Size 0","Counts/Channel 0","Micron Size 1","Counts/Channel 1","Micron Size 2","Counts/Channel 2","Micron Size 3","Counts/Channel 3","Micron Size 4","Counts/Channel 4","Micron Size 5","Counts/Channel 5","Micron Size 6","Counts/Channel 6","Micron Size 7","Counts/Channel 7","Micron Size 8","Counts/Channel 8","Micron Size 9","Counts/Channel 9","Micron Size 10","Counts/Channel 10","Micron Size 11","Counts/Channel 11","Micron Size 12","Counts/Channel 12","Micron Size 13","Counts/Channel 13","Micron Size 14","Counts/Channel 14","Micron Size 15","Counts/Channel 15","Micron Size 16","Counts/Channel 16","Micron Size 17","Counts/Channel 17","Micron Size 18","Counts/Channel 18","Micron Size 19","Counts/Channel 19","Micron Size 20","Counts/Channel 20","Micron Size 21","Counts/Channel 21","Micron Size 22","Counts/Channel 22","Micron Size 23","Counts/Channel 23","Micron Size 24","Counts/Channel 24","Micron Size 25","Counts/Channel 25","Micron Size 26","Counts/Channel 26","Micron Size 27","Counts/Channel 27","Micron Size 28","Counts/Channel 28","Micron Size 29","Counts/Channel 29","Micron Size 30","Counts/Channel 30","Micron Size 31","Counts/Channel 31"
"03/08/08","19:00:02",11020.000,"cc",28326.315,6.00,6,0.100,8910.000,0.200,2056.000,0.300,51.000,0.500,3.000,1.000,0,5.000,0
"03/08/08","19:00:08",10492.000,"cc",28296.756,6.00,6,0.100,8574.000,0.200,1880.000,0.300,35.000,0.500,3.000,1.000,0,5.000,0
"03/08/08","19:00:14",10983.000,"cc",28361.414,6.00,6,0.100,8935.000,0.200,2006.000,0.300,40.000,0.500,2.000,1.000,0,5.000,0
"03/08/08","19:00:20",10735.000,"cc",28324.277,6.00,6,0.100,8723.000,0.200,1971.000,0.300,38.000,0.500,3.000,1.000,0,5.000,0
"03/08/08","19:00:26",10588.000,"cc",28289.539,6.00,6,0.100,8639.000,0.200,1913.000,0.300,31.000,0.500,3.000,1.000,2.000,5.000,0
"03/08/08","19:00:32",10974.000,"cc",28302.441,6.00,6,0.100,8936.000,0.200,1996.000,0.300,41.000,0.500,1.000,1.000,0,5.000,0
"03/08/08","19:00:38",10542.000,"cc",28273.268,6.00,6,0.100,8650.000,0.200,1861.000,0.300,30.000,0.500,1.000,1.000,0,5.000,0
"03/08/08","19:00:44",10830.000,"cc",28289.832,6.00,6,0.100,8867.000,0.200,1909.000,0.300,49.000,0.500,3.000,1.000,2.000,5.000,0
"03/08/08","19:00:50",10481.000,"cc",28392.832,6.00,6,0.100,8557.000,0.200,1894.000,0.300,27.000,0.500,3.000,1.000,0,5.000,0
"03/08/08","19:00:56",10767.000,"cc",28317.703,6.00,6,0.100,8701.000,0.200,2028.000,0.300,37.000,0.500,1.000,1.000,0,5.000,0
"03/08/08","19:01:02",10470.000,"cc",28306.566,6.00,6,0.100,8498.000,0.200,1928.000,0.300,43.000,0.500,1.000,1.000,0,5.000,0
"03/08/08","19:01:08",10462.000,"cc",28326.123,6.00,6,0.100,8613.000,0.200,1809.000,0.300,38.000,0.500,2.000,1.000,0,5.000,0
"03/08/08","19:01:14",10687.000,"cc",28298.883,6.00,6,0.100,8722.000,0.200,1913.000,0.300,48.000,0.500,4.000,1.000,0,5.000,0
"03/08/08","19:01:20",10255.000,"cc",28283.934,6.00,6,0.100,8355.000,0.200,1865.000,0.300,34.000,0.500,1.000,1.000,0,5.000,0
"03/08/08","19:01:26",9877.000,"cc",28395.379,6.00,6,0.100,8167.000,0.200,1682.000,0.300,25.000,0.500,3.000,1.000,0,5.000,0
"03/08/08","19:01:32",10109.000,"cc",28332.641,6.00,6,0.100,8310.000,0.200,1768.000,0.300,30.000,0.500,1.000,1.000,0,5.000,0
"03/08/08","19:01:38",9550.000,"cc",28309.711,6.00,6,0.100,7886.000,0.200,1631.000,0.300,29.000,0.500,4.000,1.000,0,5.000,0
"03/08/08","19:01:44",10148.000,"cc",28316.611,6.00,6,0.100,8241.000,0.200,1865.000,0.300,39.000,0.500,3.000,1.000,0,5.000,0
"03/08/08","19:01:50",9818.000,"cc",28344.772,6.00,6,0.100,8111.000,0.200,1664.000,0.300,41.000,0.500,1.000,1.000,1.000,5.000,0
"03/08/08","19:01:56",9713.000,"cc",28342.828,6.00,6,0.100,7992.000,0.200,1684.000,0.300,35.000,0.500,2.000,1.000,0,5.000,0
"03/08/08","19:02:02",9985.000,"cc",28267.195,6.00,6,0.100,8166.000,0.200,1794.000,0.300,25.000,0.500,0,1.000,0,5.000,0
"03/08/08","19:02:08",10109.000,"cc",28231.719,6.00,6,0.100,8347.000,0.200,1725.000,0.300,36.000,0.500,1.000,1.000,0,5.000,0
"03/08/08","19:02:14",10172.000,"cc",28307.914,6.00,6,0.100,8336.000,0.200,1800.000,0.300,33.000,0.500,3.000,1.000,0,5.000,0
"03/08/08","19:02:20",9924.000,"cc",28333.953,6.00,6,0.100,8216.000,0.200,1681.000,0.300,26.000,0.500,1.000,1.000,0,5.000,0
"03/08/08","19:02:26",10192.000,"cc",28401.090,6.00,6,0.100,8310.000,0.200,1844.000,0.300,35.000,0.500,2.000,1.000,1.000,5.000,0
"03/08/08","19:02:32",10041.000,"cc",28305.467,6.00,6,0.100,8236.000,0.200,1770.000,0.300,34.000,0.500,1.000,1.000,0,5.000,0
"03/08/08","19:02:38",10166.000,"cc",28284.791,6.00,6,0.100,8316.000,0.200,1820.000,0.300,26.000,0.500,4.000,1.000,0,5.000,0
"03/08/08","19:02:44",9746.000,"cc",28372.691,6.00,6,0.100,8052.000,0.200,1659.000,0.300,34.000,0.500,1.000,1.000,0,5.000,0
"03/08/08","19:02:50",10109.000,"cc",28276.219,6.00,6,0.100,8248.000,0.200,1816.000,0.300,43.000,0.500,2.000,1.000,0,5.000,0
"03/08/08","19:02:56",10505.000,"cc",28326.850,6.00,6,0.100,8539.000,0.200,1916.000,0.300,47.000,0.500,3.000,1.000,0,5.000,0
"03/08/08","19:03:02",10197.000,"cc",28368.891,6.00,6,0.100,8280.000,0.200,1874.000,0.300,41.000,0.500,2.000,1.000,0,5.000,0
"03/08/08","19:03:08",9879.000,"cc",28274.145,6.00,6,0.100,8050.000,0.200,1790.000,0.300,38.000,0.500,1.000,1.000,0,5.000,0
"03/08/08","19:03:14",10317.000,"cc",28330.717,6.00,6,0.100,8317.000,0.200,1955.000,0.300,43.000,0.500,2.000,1.000,0,5.000,0
"03/08/08","19:03:20",10097.000,"cc",28347.822,6.00,6,0.100,8240.000,0.200,1822.000,0.300,32.000,0.500,3.000,1.000,0,5.000,0
"03/08/08","19:03:26",9587.000,"cc",28292.721,6.00,6,0.100,7892.000,0.200,1663.000,0.300,29.000,0.500,3.000,1.000,0,5.000,0
"03/08/08","19:03:32",10281.000,"cc",28257.416,6.00,6,0.100,8388.000,0.200,1856.000,0.300,35.000,0.500,2.000,1.000,0,5.000,0
"03/08/08","19:03:38",9756.000,"cc",28357.500,6.00,6,0.100,8021.000,0.200,1682.000,0.300,48.000,0.500,5.000,1.000,0,5.000,0
"03/08/08","19:03:44",9603.000,"cc",28380.787,6.00,6,0.100,7863.000,0.200,1697.000,0.300,39.000,0.500,4.000,1.000,0,5.000,0
"03/08/08","19:03:50",10166.000,"cc",28299.713,6.00,6,0.100,8348.000,0.200,1776.000,0.300,39.000,0.500,3.000,1.000,0,5.000,0
"03/08/08","19:03:56",10224.000,"cc",28272.135,6.00,6,0.100,8276.000,0.200,1893.000,0.300,53.000,0.500,2.000,1.000,0,5.000,0
"03/08/08","19:04:02",9399.000,"cc",28311.051,6.00,6,0.100,7788.000,0.200,1579.000,0.300,31.000,0.500,1.000,1.000,0,5.000,0
"03/08/08","19:04:08",9673.000,"cc",28347.758,6.00,6,0.100,7998.000,0.200,1639.000,0.300,33.000,0.500,3.000,1.000,0,5.000,0
"03/08/08","19:04:14",9982.000,"cc",28330.828,6.00,6,0.100,8165.000,0.200,1774.000,0.300,43.000,0.500,0,1.000,0,5.000,0
"03/08/08","19:04:20",9907.000,"cc",28319.994,6.00,6,0.100,8172.000,0.200,1701.000,0.300,33.000,0.500,1.000,1.000,0,5.000,0
"03/08/08","19:04:26",10136.000,"cc",28319.434,6.00,6,0.100,8307.000,0.200,1787.000,0.300,39.000,0.500,3.000,1.000,0,5.000,0
"03/08/08","19:04:32",9817.000,"cc",28264.940,6.00,6,0.100,8149.000,0.200,1634.000,0.300,29.000,0.500,5.000,1.000,0,5.000,0
"03/08/08","19:04:38",9812.000,"cc",28303.496,6.00,6,0.100,8129.000,0.200,1642.000,0.300,37.000,0.500,4.000,1.000,0,5.000,0
"03/08/08","19:04:44",9350.000,"cc",28376.922,6.00,6,0.100,7713.000,0.200,1601.000,0.300,34.000,0.500,2.000,1.000,0,5.000,0
"03/08/08","19:04:50",9651.000,"cc",28332.963,6.00,6,0.100,8018.000,0.200,1602.000,0.300,31.000,0.500,0,1.000,0,5.000,0
"03/08/08","19:04:56",9739.000,"cc",28277.205,6.00,6,0.100,8076.000,0.200,1617.000,0.300,41.000,0.500,2.000,1.000,3.000,5.000,0
"03/08/08","19:05:02",9915.000,"cc",28274.332,6.00,6,0.100,8140.000,0.200,1728.000,0.300,47.000,0.500,0,1.000,0,5.000,0
"03/08/08","19:05:08",9937.000,"cc",28361.551,6.00,6,0.100,8123.000,0.200,1782.000,0.300,30.000,0.500,2.000,1.000,0,5.000,0
"03/08/08","19:05:14",10129.000,"cc",28365.850,6.00,6,0.100,8331.000,0.200,1754.000,0.300,39.000,0.500,4.000,1.000,1.000,5.000,0
"03/08/08","19:05:20",9810.000,"cc",28264.727,6.00,6,0.100,8068.000,0.200,1710.000,0.300,30.000,0.500,2.000,1.000,0,5.000,0
"03/08/08","19:05:26",9907.000,"cc",28283.268,6.00,6,0.100,8164.000,0.200,1689.000,0.300,47.000,0.500,7.000,1.000,0,5.000,0
"03/08/08","19:05:32",9649.000,"cc",28348.803,6.00,6,0.100,7957.000,0.200,1655.000,0.300,35.000,0.500,2.000,1.000,0,5.000,0
"03/08/08","19:05:38",9911.000,"cc",28352.197,6.00,6,0.100,8147.000,0.200,1729.000,0.300,34.000,0.500,1.000,1.000,0,5.000,0
"03/08/08","19:05:44",9786.000,"cc",28284.139,6.00,6,0.100,8100.000,0.200,1650.000,0.300,36.000,0.500,0,1.000,0,5.000,0
"03/08/08","19:05:50",9879.000,"cc",28281.695,6.00,6,0.100,8170.000,0.200,1670.000,0.300,37.000,0.500,2.000,1.000,0,5.000,0
"03/08/08","19:05:56",9814.000,"cc",28322.924,6.00,6,0.100,8060.000,0.200,1710.000,0.300,42.000,0.500,2.000,1.000,0,5.000,0
"03/08/08","19:06:02",9849.000,"cc",28337.231,6.00,6,0.100,8092.000,0.200,1700.000,0.300,54.000,0.500,3.000,1.000,0,5.000,0
"03/08/08","19:06:08",10242.000,"cc",28355.264,6.00,6,0.100,8325.000,0.200,1877.000,0.300,36.000,0.500,4.000,1.000,0,5.000,0
"03/08/08","19:06:14",9981.000,"cc",28353.471,6.00,6,0.100,8183.000,0.200,1754.000,0.300,41.000,0.500,3.000,1.000,0,5.000,0
"03/08/08","19:06:20",10091.000,"cc",28306.885,6.00,6,0.100,8242.000,0.200,1810.000,0.300,37.000,0.500,2.000,1.000,0,5.000,0
"03/08/08","19:06:26",9869.000,"cc",28268.973,6.00,6,0.100,8164.000,0.200,1674.000,0.300,29.000,0.500,2.000,1.000,0,5.000,0
"03/08/08","19:06:32",10121.000,"cc",28315.902,6.00,6,0.100,8223.000,0.200,1849.000,0.300,48.000,0.500,1.000,1.000,0,5.000,0
"03/08/08","19:06:38",10396.000,"cc",28361.318,6.00,6,0.100,8408.000,0.200,1947.000,0.300,39.000,0.500,2.000,1.000,0,5.000,0
"03/08/08","19:06:44",10376.000,"cc",28308.779,6.00,6,0.100,8361.000,0.200,1966.000,0.300,47.000,0.500,2.000,1.000,0,5.000,0
"03/08/08","19:06:50",10165.000,"cc",28341.693,6.00,6,0.100,8203.000,0.200,1916.000,0.300,43.000,0.500,3.000,1.000,0,5.000,0
"03/08/08","19:06:56",10295.000,"cc",28325.346,6.00,6,0.100,8333.000,0.200,1929.000,0.300,29.000,0.500,3.000,1.000,1.000,5.000,0
"03/08/08","19:07:02",9947.000,"cc",28334.500,6.00,6,0.100,8110.000,0.200,1787.000,0.300,48.000,0.500,1.000,1.000,1.000,5.000,0
"03/08/08","19:07:08",10538.000,"cc",28266.873,6.00,6,0.100,8660.000,0.200,1829.000,0.300,47.000,0.500,2.000,1.000,0,5.000,0
"03/08/08","19:07:14",10277.000,"cc",28318.775,6.00,6,0.100,8336.000,0.200,1884.000,0.300,52.000,0.500,5.000,1.000,0,5.000,0
"03/08/08","19:07:20",10262.000,"cc",28338.467,6.00,6,0.100,8478.000,0.200,1746.000,0.300,36.000,0.500,2.000,1.000,0,5.000,0
"03/08/08","19:07:26",10063.000,"cc",28303.172,6.00,6,0.100,8295.000,0.200,1727.000,0.300,34.000,0.500,7.000,1.000,0,5.000,0
"03/08/08","19:07:32",10112.000,"cc",28351.748,6.00,6,0.100,8277.000,0.200,1793.000,0.300,40.000,0.500,2.000,1.000,0,5.000,0
"03/08/08","19:07:38",10253.000,"cc",28275.742,6.00,6,0.100,8404.000,0.200,1809.000,0.300,38.000,0.500,2.000,1.000,0,5.000,0
"03/08/08","19:07:44",10203.000,"cc",28268.789,6.00,6,0.100,8354.000,0.200,1810.000,0.300,39.000,0.500,0,1.000,0,5.000,0
"03/08/08","19:07:50",10307.000,"cc",28311.469,6.00,6,0.100,8439.000,0.200,1834.000,0.300,33.000,0.500,1.000,1.000,0,5.000,0
"03/08/08","19:07:56",10519.000,"cc",28375.629,6.00,6,0.100,8601.000,0.200,1879.000,0.300,37.000,0.500,2.000,1.000,0,5.000,0
"03/08/08","19:08:02",9910.000,"cc",28370.434,6.00,6,0.100,8157.000,0.200,1715.000,0.300,37.000,0.500,0,1.000,1.000,5.000,0
"03/08/08","19:08:08",10157.000,"cc",28308.209,6.00,6,0.100,8290.000,0.200,1831.000,0.300,32.000,0.500,4.000,1.000,0,5.000,0
"03/08/08","19:08:14",10204.000,"cc",28260.125,6.00,6,0.100,8440.000,0.200,1736.000,0.300,26.000,0.500,2.000,1.000,0,5.000,0
"03/08/08","19:08:20",10087.000,"cc",28299.117,6.00,6,0.100,8310.000,0.200,1742.000,0.300,32.000,0.500,2.000,1.000,1.000,5.000,0
"03/08/08","19:08:26",10007.000,"cc",28304.760,6.00,6,0.100,8240.000,0.200,1727.000,0.300,36.000,0.500,3.000,1.000,1.000,5.000,0
"03/08/08","19:08:32",10027.000,"cc",28350.244,6.00,6,0.100,8251.000,0.200,1740.000,0.300,33.000,0.500,3.000,1.000,0,5.000,0
"03/08/08","19:08:38",9985.000,"cc",28300.213,6.00,6,0.100,8298.000,0.200,1646.000,0.300,37.000,0.500,4.000,1.000,0,5.000,0
"03/08/08","19:08:44",9616.000,"cc",28334.232,6.00,6,0.100,7901.000,0.200,1677.000,0.300,37.000,0.500,1.000,1.000,0,5.000,0
"03/08/08","19:08:50",9854.000,"cc",28395.018,6.00,6,0.100,8008.000,0.200,1809.000,0.300,33.000,0.500,3.000,1.000,1.000,5.000,0
"03/08/08","19:08:56",10187.000,"cc",28253.773,6.00,6,0.100,8309.000,0.200,1838.000,0.300,39.000,0.500,1.000,1.000,0,5.000,0
"03/08/08","19:09:02",10418.000,"cc",28286.043,6.00,6,0.100,8586.000,0.200,1790.000,0.300,39.000,0.500,3.000,1.000,0,5.000,0
"03/08/08","19:09:08",10076.000,"cc",28316.772,6.00,6,0.100,8301.000,0.200,1738.000,0.300,33.000,0.500,4.000,1.000,0,5.000,0
"03/08/08","19:09:14",10583.000,"cc",28284.873,6.00,6,0.100,8677.000,0.200,1866.000,0.300,36.000,0.500,4.000,1.000,0,5.000,0
"03/08/08","19:09:20",10434.000,"cc",28321.850,6.00,6,0.100,8541.000,0.200,1854.000,0.300,37.000,0.500,2.000,1.000,0,5.000,0
"03/08/08","19:09:26",10260.000,"cc",28395.727,6.00,6,0.100,8365.000,0.200,1846.000,0.300,45.000,0.500,3.000,1.000,1.000,5.000,0
"03/08/08","19:09:32",10297.000,"cc",28361.445,6.00,6,0.100,8447.000,0.200,1800.000,0.300,47.000,0.500,3.000,1.000,0,5.000,0
"03/08/08","19:09:38",10106.000,"cc",28294.418,6.00,6,0.100,8242.000,0.200,1835.000,0.300,27.000,0.500,2.000,1.000,0,5.000,0
"03/08/08","19:09:44",9996.000,"cc",28248.270,6.00,6,0.100,8280.000,0.200,1676.000,0.300,38.000,0.500,2.000,1.000,0,5.000,0
"03/08/08","19:09:50",10370.000,"cc",28385.807,6.00,6,0.100,8511.000,0.200,1803.000,0.300,54.000,0.500,2.000,1.000,0,5.000,0
"03/08/08","19:09:56",9967.000,"cc",28364.111,6.00,6,0.100,8233.000,0.200,1686.000,0.300,43.000,0.500,5.000,1.000,0,5.000,0
"03/08/08","19:10:02",10142.000,"cc",28202.957,6.00,6,0.100,8281.000,0.200,1818.000,0.300,38.000,0.500,5.000,1.000,0,5.000,0
"03/08/08","19:10:08",9843.000,"cc",28255.625,6.00,6,0.100,8201.000,0.200,1603.000,0.300,36.000,0.500,3.000,1.000,0,5.000,0
"03/08/08","19:10:14",10238.000,"cc",28303.981,6.00,6,0.100,8431.000,0.200,1772.000,0.300,30.000,0.500,4.000,1.000,1.000,5.000,0
"03/08/08","19:10:20",10022.000,"cc",28427.975,6.00,6,0.100,8284.000,0.200,1713.000,0.300,24.000,0.500,1.000,1.000,0,5.000,0
"03/08/08","19:10:26",10224.000,"cc",28365.195,6.00,6,0.100,8442.000,0.200,1747.000,0.300,32.000,0.500,3.000,1.000,0,5.000,0
"03/08/08","19:10:32",10008.000,"cc",28297.895,6.00,6,0.100,8202.000,0.200,1774.000,0.300,30.000,0.500,2.000,1.000,0,5.000,0
"03/08/08","19:10:38",9815.000,"cc",28310.906,6.00,6,0.100,8061.000,0.200,1703.000,0.300,49.000,0.500,2.000,1.000,0,5.000,0
"03/08/08","19:10:44",10289.000,"cc",28313.863,6.00,6,0.100,8409.000,0.200,1822.000,0.300,53.000,0.500,5.000,1.000,0,5.000,0
"03/08/08","19:10:50",9927.000,"cc",28294.150,6.00,6,0.100,8232.000,0.200,1663.000,0.300,29.000,0.500,3.000,1.000,0,5.000,0
"03/08/08","19:10:56",9803.000,"cc",28278.717,6.00,6,0.100,8020.000,0.200,1739.000,0.300,43.000,0.500,1.000,1.000,0,5.000,0
"03/08/08","19:11:02",9584.000,"cc",28370.076,6.00,6,0.100,7936.000,0.200,1601.000,0.300,41.000,0.500,5.000,1.000,1.000,5.000,0
"03/08/08","19:11:08",10112.000,"cc",28319.893,6.00,6,0.100,8270.000,0.200,1794.000,0.300,41.000,0.500,7.000,1.000,0,5.000,0
"03/08/08","19:11:14",9710.000,"cc",28263.770,6.00,6,0.100,8076.000,0.200,1579.000,0.300,50.000,0.500,5.000,1.000,0,5.000,0
"03/08/08","19:11:20",9642.000,"cc",28300.283,6.00,6,0.100,7970.000,0.200,1633.000,0.300,38.000,0.500,1.000,1.000,0,5.000,0
"03/08/08","19:11:26",9733.000,"cc",28305.244,6.00,6,0.100,8005.000,0.200,1683.000,0.300,42.000,0.500,3.000,1.000,0,5.000,0
"03/08/08","19:11:32",9350.000,"cc",28392.373,6.00,6,0.100,7843.000,0.200,1475.000,0.300,31.000,0.500,1.000,1.000,0,5.000,0
"03/08/08","19:11:38",9316.000,"cc",28323.461,6.00,6,0.100,7857.000,0.200,1435.000,0.300,23.000,0.500,1.000,1.000,0,5.000,0
"03/08/08","19:11:44",9271.000,"cc",28278.666,6.00,6,0.100,7804.000,0.200,1433.000,0.300,32.000,0.500,2.000,1.000,0,5.000,0
"03/08/08","19:11:50",9259.000,"cc",28309.272,6.00,6,0.100,7739.000,0.200,1496.000,0.300,20.000,0.500,4.000,1.000,0,5.000,0
"03/08/08","19:11:56",9718.000,"cc",28313.367,6.00,6,0.100,8082.000,0.200,1599.000,0.300,33.000,0.500,4.000,1.000,0,5.000,0
"03/08/08","19:12:02",9640.000,"cc",28322.158,6.00,6,0.100,8034.000,0.200,1562.000,0.300,38.000,0.500,6.000,1.000,0,5.000,0
"03/08/08","19:12:08",9697.000,"cc",28279.529,6.00,6,0.100,8099.000,0.200,1561.000,0.300,34.000,0.500,3.000,1.000,0,5.000,0
"03/08/08","19:12:14",9886.000,"cc",28344.434,6.00,6,0.100,8220.000,0.200,1619.000,0.300,41.000,0.500,4.000,1.000,2.000,5.000,0
"03/08/08","19:12:20",9140.000,"cc",28337.315,6.00,6,0.100,7740.000,0.200,1373.000,0.300,25.000,0.500,2.000,1.000,0,5.000,0
"03/08/08","19:12:26",9792.000,"cc",28369.588,6.00,6,0.100,8043.000,0.200,1714.000,0.300,33.000,0.500,2.000,1.000,0,5.000,0
"03/08/08","19:12:32",9455.000,"cc",28293.070,6.00,6,0.100,7914.000,0.200,1508.000,0.300,30.000,0.500,2.000,1.000,1.000,5.000,0
"03/08/08","19:12:38",9328.000,"cc",28298.432,6.00,6,0.100,7778.000,0.200,1518.000,0.300,28.000,0.500,4.000,1.000,0,5.000,0
"03/08/08","19:12:44",9765.000,"cc",28237.436,6.00,6,0.100,8120.000,0.200,1606.000,0.300,30.000,0.500,8.000,1.000,1.000,5.000,0
"03/08/08","19:12:50",9015.000,"cc",28361.826,6.00,6,0.100,7591.000,0.200,1401.000,0.300,19.000,0.500,3.000,1.000,1.000,5.000,0
"03/08/08","19:12:56",9485.000,"cc",28366.459,6.00,6,0.100,7902.000,0.200,1543.000,0.300,36.000,0.500,4.000,1.000,0,5.000,0
"03/08/08","19:13:02",9597.000,"cc",28395.408,6.00,6,0.100,7920.000,0.200,1627.000,0.300,44.000,0.500,6.000,1.000,0,5.000,0
"03/08/08","19:13:08",9397.000,"cc",28264.291,6.00,6,0.100,7809.000,0.200,1541.000,0.300,43.000,0.500,4.000,1.000,0,5.000,0
"03/08/08","19:13:14",9667.000,"cc",28258.893,6.00,6,0.100,8040.000,0.200,1602.000,0.300,25.000,0.500,0,1.000,0,5.000,0
"03/08/08","19:13:20",9441.000,"cc",28296.229,6.00,6,0.100,7865.000,0.200,1530.000,0.300,42.000,0.500,4.000,1.000,0,5.000,0
"03/08/08","19:13:26",9471.000,"cc",28246.160,6.00,6,0.100,7840.000,0.200,1586.000,0.300,43.000,0.500,2.000,1.000,0,5.000,0
"03/08/08","19:13:32",9823.000,"cc",28355.156,6.00,6,0.100,8225.000,0.200,1556.000,0.300,37.000,0.500,5.000,1.000,0,5.000,0
"03/08/08","19:13:38",9223.000,"cc",28364.313,6.00,6,0.100,7701.000,0.200,1499.000,0.300,22.000,0.500,1.000,1.000,0,5.000,0
"03/08/08","19:13:44",9126.000,"cc",28362.213,6.00,6,0.100,7680.000,0.200,1414.000,0.300,32.000,0.500,0,1.000,0,5.000,0
"03/08/08","19:13:50",8625.000,"cc",28295.781,6.00,6,0.100,7258.000,0.200,1342.000,0.300,23.000,0.500,2.000,1.000,0,5.000,0
"03/08/08","19:13:56",8783.000,"cc",28388.895,6.00,6,0.100,7312.000,0.200,1424.000,0.300,40.000,0.500,5.000,1.000,2.000,5.000,0
"03/08/08","19:14:02",9644.000,"cc",28268.826,6.00,6,0.100,7997.000,0.200,1599.000,0.300,46.000,0.500,2.000,1.000,0,5.000,0
"03/08/08","19:14:08",9477.000,"cc",28261.729,6.00,6,0.100,7934.000,0.200,1495.000,0.300,43.000,0.500,5.000,1.000,0,5.000,0
"03/08/08","19:14:14",8949.000,"cc",28322.225,6.00,6,0.100,7556.000,0.200,1359.000,0.300,31.000,0.500,3.000,1.000,0,5.000,0
"03/08/08","19:14:20",8047.000,"cc",28322.340,6.00,6,0.100,6907.000,0.200,1124.000,0.300,13.000,0.500,2.000,1.000,1.000,5.000,0
"03/08/08","19:14:26",9766.000,"cc",28351.414,6.00,6,0.100,8154.000,0.200,1578.000,0.300,27.000,0.500,7.000,1.000,0,5.000,0
"03/08/08","19:14:32",9156.000,"cc",28346.629,6.00,6,0.100,7660.000,0.200,1460.000,0.300,31.000,0.500,5.000,1.000,0,5.000,0
"03/08/08","19:14:38",9243.000,"cc",28327.949,6.00,6,0.100,7744.000,0.200,1450.000,0.300,38.000,0.500,9.000,1.000,2.000,5.000,0
"03/08/08","19:14:44",9057.000,"cc",28315.652,6.00,6,0.100,7653.000,0.200,1373.000,0.300,29.000,0.500,2.000,1.000,0,5.000,0
"03/08/08","19:14:50",8746.000,"cc",28307.477,6.00,6,0.100,7392.000,0.200,1333.000,0.300,18.000,0.500,3.000,1.000,0,5.000,0
"03/08/08","19:14:56",9103.000,"cc",28317.641,6.00,6,0.100,7574.000,0.200,1471.000,0.300,52.000,0.500,5.000,1.000,1.000,5.000,0
"03/08/08","19:15:02",9464.000,"cc",28332.313,6.00,6,0.100,7904.000,0.200,1516.000,0.300,41.000,0.500,3.000,1.000,0,5.000,0
"03/08/08","19:15:08",9422.000,"cc",28289.754,6.00,6,0.100,7910.000,0.200,1473.000,0.300,39.000,0.500,0,1.000,0,5.000,0
"03/08/08","19:15:14",8947.000,"cc",28245.137,6.00,6,0.100,7565.000,0.200,1334.000,0.300,44.000,0.500,4.000,1.000,0,5.000,0
"03/08/08","19:15:20",9064.000,"cc",28289.580,6.00,6,0.100,7563.000,0.200,1454.000,0.300,42.000,0.500,4.000,1.000,1.000,5.000,0
"03/08/08","19:15:26",8451.000,"cc",28371.844,6.00,6,0.100,7117.000,0.200,1289.000,0.300,41.000,0.500,4.000,1.000,0,5.000,0
"03/08/08","19:15:32",9083.000,"cc",28283.455,6.00,6,0.100,7539.000,0.200,1505.000,0.300,32.000,0.500,7.000,1.000,0,5.000,0
"03/08/08","19:15:38",9565.000,"cc",28323.094,6.00,6,0.100,8018.000,0.200,1499.000,0.300,45.000,0.500,3.000,1.000,0,5.000,0
"03/08/08","19:15:44",9240.000,"cc",28357.059,6.00,6,0.100,7678.000,0.200,1516.000,0.300,36.000,0.500,9.000,1.000,1.000,5.000,0
"03/08/08","19:15:50",9348.000,"cc",28358.258,6.00,6,0.100,7923.000,0.200,1388.000,0.300,34.000,0.500,3.000,1.000,0,5.000,0
"03/08/08","19:15:56",9486.000,"cc",28300.221,6.00,6,0.100,7864.000,0.200,1559.000,0.300,60.000,0.500,3.000,1.000,0,5.000,0
"03/08/08","19:16:02",9472.000,"cc",28292.311,6.00,6,0.100,7920.000,0.200,1506.000,0.300,41.000,0.500,4.000,1.000,1.000,5.000,0
"03/08/08","19:16:08",9259.000,"cc",28336.023,6.00,6,0.100,7783.000,0.200,1429.000,0.300,42.000,0.500,5.000,1.000,0,5.000,0
"03/08/08","19:16:14",8923.000,"cc",28303.940,6.00,6,0.100,7492.000,0.200,1384.000,0.300,40.000,0.500,7.000,1.000,0,5.000,0
"03/08/08","19:16:20",9719.000,"cc",28305.873,6.00,6,0.100,8082.000,0.200,1595.000,0.300,40.000,0.500,2.000,1.000,0,5.000,0
"03/08/08","19:16:26",9792.000,"cc",28325.359,6.00,6,0.100,8216.000,0.200,1535.000,0.300,37.000,0.500,4.000,1.000,0,5.000,0
"03/08/08","19:16:32",9658.000,"cc",28312.379,6.00,6,0.100,8078.000,0.200,1528.000,0.300,45.000,0.500,6.000,1.000,1.000,5.000,0
"03/08/08","19:16:38",9559.000,"cc",28309.477,6.00,6,0.100,7986.000,0.200,1532.000,0.300,33.000,0.500,8.000,1.000,0,5.000,0
"03/08/08","19:16:44",9252.000,"cc",28311.088,6.00,6,0.100,7842.000,0.200,1377.000,0.300,30.000,0.500,3.000,1.000,0,5.000,0
"03/08/08","19:16:50",9952.000,"cc",28291.039,6.00,6,0.100,8263.000,0.200,1625.000,0.300,58.000,0.500,5.000,1.000,1.000,5.000,0
"03/08/08","19:16:56",10048.000,"cc",28363.861,6.00,6,0.100,8341.000,0.200,1631.000,0.300,69.000,0.500,6.000,1.000,1.000,5.000,0
"03/08/08","19:17:02",9944.000,"cc",28364.432,6.00,6,0.100,8328.000,0.200,1580.000,0.300,31.000,0.500,5.000,1.000,0,5.000,0
"03/08/08","19:17:08",10179.000,"cc",28239.576,6.00,6,0.100,8350.000,0.200,1771.000,0.300,51.000,0.500,6.000,1.000,1.000,5.000,0
"03/08/08","19:17:14",9433.000,"cc",28315.650,6.00,6,0.100,7996.000,0.200,1401.000,0.300,33.000,0.500,1.000,1.000,2.000,5.000,0
"03/08/08","19:17:20",9289.000,"cc",28333.426,6.00,6,0.100,7813.000,0.200,1443.000,0.300,30.000,0.500,3.000,1.000,0,5.000,0
"03/08/08","19:17:26",10149.000,"cc",28303.438,6.00,6,0.100,8407.000,0.200,1690.000,0.300,46.000,0.500,6.000,1.000,0,5.000,0
"03/08/08","19:17:32",10584.000,"cc",28293.408,6.00,6,0.100,8685.000,0.200,1846.000,0.300,52.000,0.500,1.000,1.000,0,5.000,0
"03/08/08","19:17:38",10063.000,"cc",28317.742,6.00,6,0.100,8434.000,0.200,1590.000,0.300,35.000,0.500,4.000,1.000,0,5.000,0
"03/08/08","19:17:44",9650.000,"cc",28387.574,6.00,6,0.100,8191.000,0.200,1415.000,0.300,37.000,0.500,7.000,1.000,0,5.000,0
"03/08/08","19:17:50",9853.000,"cc",28239.356,6.00,6,0.100,8202.000,0.200,1604.000,0.300,38.000,0.500,9.000,1.000,0,5.000,0
"03/08/08","19:17:56",10153.000,"cc",28288.727,6.00,6,0.100,8398.000,0.200,1701.000,0.300,49.000,0.500,4.000,1.000,1.000,5.000,0